EA1IDU Weather Reports


Display with metric or nautical units.
time (UTC)temp
F
wind
direction
speed
MPH
gust
MPH
rain 1hr
in
rain 24hr
in
rain mn
in
humidity
%
barometer
mb
20260504202049 46 36 4.0 8.0 0.08 0.78 0.78 93 1014.7
20260504201044 46 18 3.0 6.0 0.08 0.78 0.78 92 1014.9
20260504200120 46 333 4.0 8.0 0.08 0.78 0.78 92 1015.0
20260504195034 46 358 4.0 7.0 0.08 0.78 0.78 92 1014.6
20260504194029 47 203 2.0 4.0 0.06 0.76 0.76 90 1015.1
20260504193024 47 260 3.0 7.0 0.02 0.72 0.72 88 1014.9
20260504192020 47 24 3.0 7.0 0.00 0.70 0.70 87 1014.2
20260504191114 46 39 9.0 13.0 0.00 0.70 0.70 87 1013.7
20260504190110 46 39 7.0 11.0 0.00 0.70 0.70 87 1013.6
20260504185105 46 45 6.0 9.0 0.00 0.70 0.70 88 1013.7
20260504184100 46 45 6.0 11.0 0.00 0.70 0.70 89 1013.8
20260504183055 46 49 8.0 13.0 0.00 0.70 0.70 89 1013.8
20260504182109 46 56 6.0 9.0 0.09 0.70 0.70 89 1013.8
20260504181044 46 39 5.0 8.0 0.37 0.70 0.70 91 1013.8
20260504180039 46 42 3.0 7.0 0.44 0.77 0.70 91 1013.8
20260504175034 47 339 5.0 11.0 0.44 0.77 0.70 91 1013.6
20260504174030 46 282 9.0 18.0 0.44 0.77 0.70 90 1013.8
20260504173024 44 36 7.0 13.0 0.44 0.77 0.70 90 1013.9
20260504172019 44 233 8.0 23.0 0.34 0.67 0.60 88 1014.7
20260504171114 51 248 12.0 24.0 0.07 0.40 0.33 79 1014.4
20260504170110 52 45 1.0 2.0 0.00 0.33 0.26 74 1013.7
20260504151115 52 35 4.0 9.0 0.00 0.41 0.26 75 1013.3
20260504150110 52 322 7.0 9.0 0.00 0.41 0.26 77 1013.4
20260504141045 50 16 5.0 11.0 0.00 0.41 0.26 82 1014.2
20260504130111 47 11 2.0 4.0 0.05 0.41 0.26 93 1014.3
20260504120122 47 62 5.0 8.0 0.08 0.37 0.21 93 1014.6
20260504110110 47 42 6.0 9.0 0.01 0.28 0.13 91 1014.9
20260504090112 51 206 4.0 8.0 0.00 0.21 0.00 83 1014.2
20260504081046 50 229 5.0 8.0 0.00 0.24 0.00 84 1013.9
20260504070112 48 207 3.0 6.0 0.00 0.24 0.00 92 1013.8
20260504050111 48 180 4.0 6.0 0.00 0.24 0.00 91 1013.0
20260504045107 48 216 5.0 7.0 0.00 0.24 0.00 91 1013.0
20260504044103 48 197 3.0 6.0 0.00 0.24 0.00 91 1012.9
20260504043057 48 212 3.0 4.0 0.00 0.24 0.00 90 1012.9
20260504042113 48 176 4.0 7.0 0.00 0.24 0.00 90 1013.1
20260504041047 48 184 3.0 6.0 0.00 0.24 0.00 90 1013.0
20260504035036 48 176 4.0 7.0 0.00 0.24 0.00 90 1013.2
20260504034051 48 173 6.0 9.0 0.00 0.24 0.00 90 1013.3
20260504033026 48 190 3.0 6.0 0.00 0.24 0.00 91 1013.4
20260504032021 47 182 1.0 4.0 0.00 0.24 0.00 92 1013.5
20260504031036 47 181 3.0 6.0 0.00 0.24 0.00 92 1013.5
20260504030151 48 192 2.0 4.0 0.00 0.24 0.00 92 1013.4
20260504025106 48 206 1.0 4.0 0.00 0.24 0.00 92 1013.4
20260504024101 48 225 0.0 2.0 0.00 0.24 0.00 92 1013.4
20260504023056 48 248 0.0 4.0 0.00 0.24 0.00 92 1013.4
20260504022111 49 251 1.0 4.0 0.00 0.24 0.00 92 1013.3
20260504021106 48 0.0 0.0 0.00 0.24 0.00 93 1013.3
20260504015036 48 0.0 0.0 0.00 0.24 0.00 93 1013.5
20260504014031 48 334 1.0 2.0 0.00 0.24 0.00 93 1013.3
20260504013026 48 0.0 0.0 0.00 0.24 0.00 93 1013.6
20260504011016 48 0.0 2.0 0.00 0.24 0.00 92 1013.6
20260504010111 48 0.0 0.0 0.00 0.24 0.00 92 1013.6
20260504005105 48 45 0.0 2.0 0.00 0.24 0.00 92 1013.6
20260504004100 48 23 0.0 2.0 0.00 0.24 0.00 92 1013.7
20260504003055 48 5 1.0 2.0 0.00 0.24 0.00 91 1013.8
20260504002050 48 41 2.0 4.0 0.00 0.24 0.00 91 1013.8
20260504001045 48 344 2.0 4.0 0.00 0.24 0.00 90 1014.1
20260504000040 49 41 1.0 2.0 0.00 0.24 0.00 90 1014.0
20260503235035 49 10 1.0 4.0 0.00 0.24 0.00 89 1013.9
20260503234030 49 9 1.0 4.0 0.00 0.24 0.00 89 1013.9
20260503233025 49 21 1.0 6.0 0.00 0.24 0.00 89 1013.9
20260503232020 49 353 1.0 4.0 0.00 0.24 0.00 88 1013.9
20260503231116 50 0.0 0.0 0.00 0.24 0.00 87 1013.8
20260503230150 50 0 0.0 2.0 0.00 0.24 0.00 86 1013.7
20260503225125 51 0.0 0.0 0.00 0.24 0.00 85 1014.0
20260503224100 51 0.0 0.0 0.00 0.24 0.00 84 1013.9
20260503223116 51 188 0.0 2.0 0.00 0.24 0.00 84 1013.9
20260503222111 51 187 3.0 6.0 0.00 0.24 0.00 83 1013.9
20260503221046 51 166 5.0 8.0 0.00 0.24 0.00 83 1013.9
20260503220041 51 191 5.0 8.0 0.00 0.24 0.00 83 1013.8
20260503215035 51 193 3.0 6.0 0.00 0.24 0.24 82 1013.8
20260503214030 51 187 4.0 8.0 0.00 0.24 0.24 83 1013.9
20260503213025 52 195 4.0 6.0 0.00 0.24 0.24 82 1013.8
20260503212020 51 198 3.0 4.0 0.00 0.24 0.24 83 1013.7
20260503211115 51 195 3.0 6.0 0.00 0.24 0.24 86 1014.0
20260503210110 52 248 0.0 4.0 0.00 0.24 0.24 87 1013.8
20260503205125 53 0.0 0.0 0.00 0.24 0.24 85 1013.5
20260503204121 53 220 0.0 2.0 0.00 0.24 0.24 83 1013.4
20260503203116 52 182 1.0 2.0 0.00 0.24 0.24 84 1013.2